User: anonymous   Login
Location: Dannhausen
(51.8650°N, 10.1026°E)
Time: 15:01:04
(UTC+00:00)
Language:

Cosmos 2360 Rocket - Orbit

View from above orbital plane
View from above orbital plane
View from above satellite
View from above satellite

Ground track
Ground track

The orbit data is extracted from the following two-line orbital elements,

1 25407U 98045B   21162.60065368 -.00000212  00000-0 -83611-4 0  9990
2 25407  71.0114 222.7952 0006433 163.6779 196.4553 14.15840181181914
Epoch (UTC): 11 June 2021 14:24:56
Eccentricity: 0.0006433
inclination: 71.0114°
perigee height: 835 km
apogee height: 844 km
right ascension of ascending node: 222.7952°
argument of perigee: 163.6779°
revolutions per day: 14.15840181
mean anomaly at epoch: 196.4553°
orbit number at epoch: 18191

The dashed part of the orbit path shows where the satellite is in the earth's shadow,  

DLR